Snowfall_Accumulation
0.0 0.0 0.0 0.0 0.0 0.0 0.0 0.0 0.0 0.0 0.0 0.0 0.0 0.0 0.0 0.0 0.0 0.0 0.0 0.0 0.0 0.0
0.0 0.0 0.0 0.0 0.0 0.0 0.0 0.0 0.0 0.0 0.0 0.0 0.0 0.0 0.0 0.0 0.0 0.0 0.0 0.0 0.0 0.0
0.1 0.1 0.1 0.0 0.0 0.0 0.0 0.0 0.0 0.0 0.0 0.0 0.0 0.0 0.0 0.0 0.0 0.0 0.0 0.0 0.0 0.0
0.0 0.0 0.1 0.1 0.0 0.1 0.0 0.0 0.0 0.0 0.0 0.0 0.0 0.0 0.0 0.0 0.0 0.0 0.0 0.0 0.0 0.0
0.1 0.1 0.1 0.0 0.0 0.0 0.1 0.1 0.1 0.0 0.0 0.0 0.0 0.0 0.0 0.0 0.0 0.0 0.0 0.0 0.0 0.0
0.2 0.3 0.3 0.1 0.0 0.0 0.1 0.0 0.0 0.1 0.0 0.0 0.0 0.0 0.0 0.0 0.0 0.0 0.0 0.0 0.0 0.0
0.1 0.1 0.2 0.2 0.2 0.1 0.0 0.1 0.0 0.0 0.0 0.0 0.0 0.0 0.0 0.0 0.0 0.0 0.0 0.0 0.0 0.0
0.2 0.1 0.0 0.0 0.1 0.2 0.1 0.1 0.1 0.1 0.0 0.0 0.0 0.0 0.0 0.0 0.0 0.0 0.0 0.0 0.0 0.0
0.1 0.2 0.1 0.0 0.0 0.1 0.2 0.2 0.1 0.1 0.1 0.0 0.0 nan nan 0.0 0.0 0.2 0.0 0.0 0.0 0.0
0.1 0.0 0.1 0.1 0.1 0.1 0.2 0.2 0.3 0.1 0.1 0.1 0.0 nan nan nan 0.0 0.3 0.2 0.1 0.0 0.0
0.1 0.0 0.0 0.1 0.2 0.1 0.2 0.3 0.4 0.2 0.1 0.2 0.0 nan nan nan 0.1 0.4 0.1 0.0 0.0 0.0
0.0 0.1 0.2 0.3 0.2 0.2 0.6 0.4 0.3 0.3 0.4 0.4 0.1 nan nan 0.2 0.8 0.8 0.2 0.0 0.0 0.0
0.3 0.8 1.0 0.6 0.6 0.3 0.8 1.1 0.6 0.4 0.2 nan 0.6 nan nan nan 1.1 1.2 0.2 0.0 0.0 nan
0.5 1.7 1.4 1.5 0.8 1.1 1.6 1.3 0.9 0.9 0.5 0.6 0.9 1.0 nan nan 1.1 1.1 0.2 0.1 0.0 0.0
Water_Equivalent
0.00 0.00 0.00 0.00 0.00 0.00 0.00 0.00 0.00 0.00 0.00 0.00 0.00 0.00 0.00 0.00 0.00 0.00 0.00 0.00 0.00 0.00
0.00 0.01 0.01 0.00 0.00 0.00 0.00 0.00 0.00 0.00 0.00 0.00 0.00 0.00 0.00 0.00 0.00 0.00 0.00 0.00 0.00 0.00
0.02 0.02 0.01 0.01 0.01 0.00 0.00 0.00 0.00 0.00 0.00 0.00 0.00 0.00 0.00 0.00 0.00 0.00 0.00 0.00 0.00 0.00
0.01 0.01 0.02 0.02 0.01 0.01 0.02 0.00 0.00 0.00 0.00 0.00 0.00 0.00 0.00 0.00 0.00 0.00 0.00 0.00 0.00 0.00
0.03 0.02 0.01 0.01 0.01 0.01 0.02 0.02 0.02 0.00 0.00 0.00 0.00 0.00 0.00 0.00 0.00 0.00 0.00 0.00 0.00 0.00
0.03 0.09 0.09 0.05 0.01 0.00 0.02 0.01 0.01 0.02 0.02 0.00 0.00 0.00 0.00 0.00 0.00 0.00 0.00 0.00 0.00 0.00
0.02 0.02 0.03 0.06 0.06 0.03 0.01 0.01 0.01 0.00 0.01 0.01 0.00 0.00 0.00 0.00 0.00 0.00 0.00 0.00 0.00 0.00
0.04 0.01 0.01 0.01 0.02 0.05 0.04 0.02 0.01 0.02 0.00 0.00 0.01 0.00 0.00 0.00 0.00 0.00 0.00 0.00 0.00 0.00
0.01 0.04 0.02 0.01 0.01 0.02 0.04 0.06 0.04 0.02 0.01 0.01 0.00 nan nan 0.00 0.00 0.02 0.00 0.00 0.00 0.00
0.01 0.00 0.02 0.02 0.01 0.01 0.03 0.04 0.06 0.03 0.02 0.02 0.00 nan nan nan 0.00 0.04 0.03 0.01 0.01 0.00
0.01 0.01 0.00 0.02 0.03 0.02 0.03 0.04 0.07 0.04 0.02 0.03 0.00 nan nan nan 0.01 0.06 0.02 0.01 0.01 0.00
0.01 0.02 0.03 0.03 0.02 0.03 0.07 0.05 0.04 0.04 0.06 0.06 0.01 nan nan 0.03 0.12 0.11 0.02 0.01 0.00 0.00
0.04 0.09 0.11 0.07 0.07 0.04 0.11 0.14 0.09 0.07 0.04 nan 0.09 nan nan nan 0.17 0.17 0.02 0.00 0.00 nan
0.07 0.20 0.17 0.18 0.10 0.13 0.21 0.17 0.12 0.12 0.07 0.10 0.12 0.14 nan nan 0.17 0.16 0.02 0.01 0.00 0.00
SL_Ratio
nan nan nan nan nan nan nan nan nan nan nan nan nan nan nan nan nan nan nan nan nan nan
3.3 3.4 3.2 nan nan nan nan nan nan nan nan nan nan nan nan nan nan nan nan nan nan nan
4.4 4.2 4.1 3.8 3.4 3.3 nan nan nan nan nan nan nan nan nan nan nan nan nan nan nan nan
4.1 3.7 3.5 3.8 4.0 3.7 3.0 3.2 nan nan nan nan nan nan nan nan nan nan nan nan nan nan
4.4 3.4 3.6 3.8 3.1 3.3 3.8 3.0 2.7 nan nan nan nan nan 5.0 nan 5.0 5.0 nan nan nan nan
5.2 4.0 3.2 3.0 3.1 3.8 3.3 3.7 3.1 2.8 2.9 nan nan 10.0 10.0 5.0 nan 10.0 10.0 5.0 5.0 nan
5.1 4.9 5.1 3.1 2.7 2.7 3.3 4.6 3.6 4.4 3.1 3.0 2.9 5.0 5.0 7.5 6.7 7.5 10.0 5.0 5.0 nan
4.9 4.5 5.0 5.0 4.1 2.9 2.8 2.9 4.0 4.6 4.5 3.6 3.6 5.0 7.5 5.0 10.0 10.0 10.0 10.0 nan 5.0
5.4 5.4 4.9 5.2 5.2 5.0 4.0 3.1 3.1 3.9 5.1 5.2 10.0 nan nan nan 7.0 7.4 7.3 7.5 nan nan
5.5 5.7 5.6 5.4 5.9 6.1 5.7 4.7 4.3 3.8 4.2 5.6 5.7 nan nan nan 5.7 7.1 7.4 7.5 6.9 8.0
5.1 6.7 6.4 6.3 6.4 6.5 6.2 6.5 6.0 5.6 5.3 5.8 6.8 nan nan nan 6.3 7.1 7.3 7.1 6.6 6.5
6.4 7.5 8.0 8.2 7.3 7.1 7.7 7.3 6.9 6.0 6.5 6.7 6.9 nan nan 5.8 6.7 7.2 7.3 7.1 5.0 7.5
7.2 8.4 8.8 8.6 8.4 7.6 7.5 7.8 7.0 6.8 5.9 nan 7.0 nan nan nan 6.5 7.3 7.2 7.3 nan nan
7.1 8.1 8.3 8.2 8.1 8.0 7.9 7.6 7.3 7.1 6.8 6.3 7.0 7.1 nan nan 6.2 6.9 6.9 6.5 7.0 5.0